Flag for U.S.A. Weather past 2 weeks in Farmington, New Mexico, U.S.A.

Now
25 °F

Light snow. Ice fog.


Feels Like: 25 °F
Forecast: 17 / 32 °F
Wind: No wind

Location: Four Corners Regional Airport

Current Time: Dec 26, 2014 at 8:12:26 AM

Latest Report: Dec 26, 2014 at 7:02 AM


Visibility: 1 mi

Pressure: 29.72 "Hg

Humidity: 92%

Dew point: 23 °F

Location of FarmingtonLocation

Historic Weather in Farmington — Graph

°F

Farmington temperature yesterday

Maximum temperature yesterday: 43 °F (at 12:53 PM)
Minimum temperature yesterday: 25 °F (at 10:53 PM)
Average temperature yesterday: 34 °F

Past Weeks' High & Low Weather Summary

 TemperatureHumidityPressure
High56 °F (Dec 12, 1:53 PM)97% (Dec 13, 8:53 PM)30.36 "Hg (Dec 13, 8:53 PM)
Low13 °F (Dec 24, 6:53 AM)25% (Dec 23, 2:53 PM)29.57 "Hg (Dec 25, 1:53 PM)
Average34 °F70%30.07 "Hg
* Reported Dec 11 7:53 AM — Dec 26 7:02 AM, Farmington, Weather by CustomWeather, © 2014

Note: Actual official high and low records may vary slightly from our data, if they occured in-between our weather recording intervals... More about our weather records

Advertising

Farmington weather history for previous 24 hours

 ConditionsComfort  
Time TempWeatherWind HumidityBarometerVisibility
7:02 AM
Dec 26
25 °FLight snow. Ice fog.No wind92%29.72 "Hg1 mi
6:53 AM25 °FLight snow. Ice fog.No wind92%29.78 "Hg1 mi
5:53 AM25 °FLight snow. Ice fog.No wind92%29.75 "Hg2 mi
4:53 AM24 °FLight snow. Ice fog.No wind91%29.73 "Hg6 mi
3:53 AM24 °FLight snow. Ice fog.3 mph88%29.72 "Hg5 mi
2:53 AM25 °FOvercast.No wind78%29.73 "Hg10 mi
1:53 AM26 °FOvercast.7 mph71%29.72 "Hg10 mi
12:53 AM26 °FMostly cloudy.5 mph81%29.70 "Hg10 mi
11:53 PM
Dec 25
27 °FOvercast.No wind78%29.70 "Hg10 mi
10:53 PM25 °FPassing clouds.6 mph78%29.72 "Hg10 mi
9:53 PM28 °FPassing clouds.5 mph72%29.70 "Hg10 mi
8:53 PM29 °FPassing clouds.5 mph72%29.71 "Hg10 mi
7:53 PM31 °FMostly cloudy.6 mph69%29.70 "Hg10 mi
6:53 PM32 °FPassing clouds.12 mph73%29.68 "Hg10 mi
5:53 PM35 °FPassing clouds.12 mph67%29.65 "Hg10 mi
4:53 PM37 °FOvercast.12 mph52%29.62 "Hg10 mi
3:53 PM39 °FOvercast.10 mph48%29.61 "Hg10 mi
2:53 PM41 °FPartly sunny.16 mph43%29.59 "Hg10 mi
1:53 PM41 °FPartly sunny.18 mph47%29.57 "Hg10 mi
12:53 PM43 °FPassing clouds.21 mph45%29.58 "Hg10 mi
11:53 AM40 °FOvercast.9 mph45%29.60 "Hg10 mi
10:53 AM37 °FOvercast.7 mph44%29.65 "Hg10 mi
9:53 AM39 °FOvercast.5 mph39%29.63 "Hg10 mi
8:53 AM35 °FPartly sunny.8 mph44%29.63 "Hg10 mi
Weather by CustomWeather, © 2014

See weather overviewHow to use our weather pages